Weather in Agstafa

Azerbaijan     41˚07′03″N   45˚27′07″E
temp.,
°C
wind,
m/s
gust,
m/s
humid.,
%
clouds,
%
prec.,
mm/h
press.,
hPa
HPBL,
m
29 november, sun
sun2901:00+2˚wsw127972 0.0 103022
04:00+1˚wsw118267 0.0 102922
07:00+1˚wsw118287 0.0 102822
10:00+3˚wnw116994 0.0 1028117
13:00+6˚n2259100 0.0 1025430
16:00+6˚nnw1155100 0.0 1024406
19:00+4˚sw1163100 0.0 102522
22:00+5˚nne1164100 0.0 102634
30 november, mon
mon3001:00+3˚w1289100 0.3 1026222
04:00+3˚w128599 0.7 1026151
07:00+3˚ene008799 0.0 102528
10:00+4˚nnw117876 0.0 1025174
13:00+7˚ne216630 0.0 1023610
16:00+7˚e336746 0.0 1022753
19:00+6˚e3476100 0.0 1024273
22:00+5˚e2281100 0.0 1024229
1 december, tue
tue101:00+4˚ese128796 0.0 1024153
04:00+3˚sse119376 0.0 102422
07:00+2˚wsw019238 0.0 102322
10:00+4˚ne008564 0.0 1024168
13:00+6˚ene1178100 0.0 1022443
16:00+6˚ene1173100 0.0 1021520
19:00+4˚se1185100 0.0 102322
22:00+4˚ssw1184100 0.0 102422
2 december, wed
wed201:00+3˚sw118482 0.0 102522
04:00+2˚wsw118546 0.0 102522
07:00+2˚wsw11861 0.0 102522
10:00+5˚nnw11720 0.0 1025119
13:00+7˚ne21650 0.0 1023480
16:00+8˚ene22640 0.0 1022579
19:00+5˚sse11790 0.0 102422
22:00+4˚ssw11830 0.0 102622
3 december, thu
thu301:00+3˚wsw11850 0.0 102722
04:00+4˚w118322 0.0 102722
07:00+4˚nw1184100 0.0 102726
10:00+5˚nnw1181100 0.0 1028116
13:00+5˚n1178100 0.0 1026273
16:00+6˚nne1178100 0.0 1026247
19:00+5˚sw018297 0.0 102853
22:00+5˚ese008393 0.0 102822